Regional Weather Roundup
Issued by NWS

Home | Current Version | Previous Version | Graphics & Text | Print | Product List | Glossary On
Versions: 1 2 3 4 5 6 7 8 9 10 11 12 13 14 15 16 17 18 19 20 21 22 23 24 25 26 27 28 29 30 31 32 33 34 35 36 37 38 39 40 41 42 43 44 45 46 47 48 49 50
000
ASUS43 KMPX 241910
RWRMN
WEATHER ROUNDUP FOR MINNESOTA
NATIONAL WEATHER SERVICE TWIN CITIES/CHANHASSEN MN
200 PM CDT MON APR 24 2017


NOTE: "FAIR" INDICATES FEW OR NO CLOUDS BELOW 12,000 FEET WITH NO
SIGNIFICANT WEATHER AND/OR OBSTRUCTIONS TO VISIBILITY. N/A MEANS
CURRENT SKY AND/OR WEATHER CONDITIONS ARE NOT AVAILABLE.

MNZ060>063-068>070-242000-
   Twin Cities Metro

CITY           SKY/WX    TMP DP  RH WIND       PRES   REMARKS
TWIN CITIES    CLOUDY    69  32  25 S20G35    29.66F
ST PAUL        CLOUDY    68  34  28 S23G35    29.67F
CRYSTAL        MOSUNNY   68  33  27 SE23G32   29.64F
BLAINE         CLOUDY    70  32  24 S22G35    29.66F
LAKEVILLE      CLOUDY    68  34  28 S17G28    29.66F
EDEN PRAIRIE   CLOUDY    71  30  21 S21G33    29.64F
SOUTH ST PAUL  PTSUNNY   69  32  25 S22G29    29.67F
LAKE ELMO      FAIR      68  36  30 S18G28    29.69F
$$
MNZ001>005-007-008-013>017-022>024-027-028-242000-
   Northwest Minnesota

CITY           SKY/WX    TMP DP  RH WIND       PRES   REMARKS
BEMIDJI        CLOUDY    46  36  68 E8G16     29.59F
HALLOCK        SNOW      34  32  93 NE15      29.67F VSB 1/4 WCI  24
ROSEAU         LGT SNOW  34  28  80 E13       29.68F VSB 1   WCI  25
WARROAD        CLOUDY    34  30  86 E21       29.71F WCI  22
THIEF RVR FALL LGT RAIN  35  32  88 E16       29.65R WCI  25
CROOKSTON      MIX PCPN  37  36  93 E14G20    29.61F
FOSSTON        RAIN      46  36  66 E7        29.58F
DETROIT LAKES  CLOUDY    57  39  51 E3        29.53F
MOORHEAD       CLOUDY    57  43  58 N3        29.51F
PARK RAPIDS    PTSUNNY   63  36  36 S25G31    29.53F
MAHNOMEN       CLOUDY    48  40  74 E10       29.55S
$$
MNZ006-009>011-018-025>026-242000-
   North Central Minnesota

CITY           SKY/WX    TMP DP  RH WIND       PRES   REMARKS
BAUDETTE       CLOUDY    36  28  73 E17       29.70F
FLAG ISLAND    LGT SNOW  32  28  86 E12G18    29.75F VSB 1   WCI  23
INTL FALLS     CLOUDY    40  27  59 E17G26    29.75F
WASKISH        DRIZZLE   37  32  81 E10       29.67F
BIG FORK       LGT RAIN  45  34  65 E8G17     29.67F
LONGVILLE      MOSUNNY   57  39  51 SE12G20   29.58F
GRAND RAPIDS   CLOUDY    48  33  56 SE8G16    29.67F
CRANE LAKE     CLOUDY    45  30  57 E8        29.78F
ORR            CLOUDY    43  28  56 E12G22    29.70F
COOK           CLOUDY    43  32  65 E12G20    29.73F
WALKER         CLOUDY    48  38  69 E9G16     29.56F
$$
MNZ012-019>021-037-242000-
   Northeast Minnesota

CITY           SKY/WX    TMP DP  RH WIND       PRES   REMARKS
DULUTH         CLOUDY    37  29  72 E21G29    29.74F
ELY            MOSUNNY   39  28  65 E13G20    29.78F
HIBBING        CLOUDY    42  30  62 E16G25    29.71F
EVELETH        CLOUDY    42  27  54 SE10G18   29.74F
DULUTH HARBOR  CLOUDY    37  34  87 NE30G37   29.79F
TWO HARBORS    PTSUNNY   39  30  70 E22G32    29.79F
SILVER BAY     CLOUDY    36  32  87 E20G28    29.82F
GRAND MARAIS     N/A     38  32  79 NE21G32   29.92F
G MARAIS ARPRT CLOUDY    34  25  69 E18G28    29.88F WCI  23
$$
MNZ029>031-032-039>041-046>048-054>057-064-242000-
   West Central Minnesota

CITY           SKY/WX    TMP DP  RH WIND       PRES   REMARKS
FERGUS FALLS   DRIZZLE   55  43  62 S17G25    29.52S
WHEATON        CLOUDY    61  37  41 S12       29.52F
MORRIS         CLOUDY    66  39  37 S25G31    29.52F
ALEXANDRIA     CLOUDY    63  37  38 S21G38    29.55F
ELBOW LAKE     FAIR      59  39  47 SW20G25   29.54F
WADENA         CLOUDY    63  37  39 S23G29    29.54F
GLENWOOD       CLOUDY    63  37  39 S23G29    29.56F
APPLETON       CLOUDY    68  36  30 S15G25    29.52F
BENSON         CLOUDY    70  28  21 SW22G30   29.55F
ORTONVILLE     CLOUDY    64  39  39 S14G26    29.51F
MADISON        CLOUDY    68  37  32 S21G28    29.52F
WILLMAR        FAIR      70  34  26 S13G21    29.58F
$$
MNZ033>034-036-042>043-049>051-058-059-242000-
   Central Minnesota

CITY           SKY/WX    TMP DP  RH WIND       PRES   REMARKS
ST CLOUD       CLOUDY    64  34  32 SE17G31   29.60F
SAUK CENTRE    CLOUDY    63  36  37 S23G30    29.57F
PAYNESVILLE    CLOUDY    66  31  27 S16G25    29.59F
AITKIN         PTSUNNY   64  25  22 SE15      29.61F
PINE RIVER     CLOUDY    63  39  42 S21G26    29.61F
BRAINERD       CLOUDY    61  32  33 S18G30    29.60F
STAPLES        CLOUDY    61  34  36 S22G30    29.57F
LONG PRAIRIE   FAIR      61  36  39 SE22G30   29.58F
LITTLE FALLS   CLOUDY    61  30  31 S21G28    29.60F
LITCHFIELD     CLOUDY    70  36  28 S8        29.60F
BUFFALO        CLOUDY    68  29  24 S10G24    29.64F
MAPLE LAKE     CLOUDY    69  35  28 S16G24    29.63F
HUTCHINSON     CLOUDY    69  35  28 S20G29    29.62F
$$
MNZ037-044-045-052-053-242000-
   East Central Minnesota

CITY           SKY/WX    TMP DP  RH WIND       PRES   REMARKS
PRINCETON      CLOUDY    66  34  30 S18G28    29.64F
MORA           CLOUDY    64  32  29 S16G25    29.66F
CAMBRIDGE      MOSUNNY   70  45  40 S18G25    29.63F
RUSH CITY      CLOUDY    67  32  27 S21G28    29.66F
MOOSE LAKE     CLOUDY    46  32  57 NE12G17   29.67F
HINCKLEY       CLOUDY    64  36  34 S16G23    29.66F
CLOQUET        CLOUDY    37  28  70 E16G23    29.73F
MCGREGOR       CLOUDY    52  36  54 E15G21    29.65F
$$
MNZ071>073-080-081-089-090-097-098-242000-
   Southwest Minnesota

CITY           SKY/WX    TMP DP  RH WIND       PRES   REMARKS
MONTEVIDEO     CLOUDY    66  37  34 SW23G30   29.54F
GRANITE FALLS  CLOUDY    66  37  34 S26G35    29.58F
CANBY          CLOUDY    64  37  36 S20       29.55F
MARSHALL       CLOUDY    61  37  41 S17       29.57F
REDWOOD FALLS  CLOUDY    65  30  27 S20G31    29.58F
OLIVIA         CLOUDY    68  34  28 S21G30    29.57F
PIPESTONE      CLOUDY    57  37  47 W18       29.59R
WINDOM         CLOUDY    63  30  29 S16G26    29.59F
WORTHINGTON    CLOUDY    62  34  35 S26G37    29.56F
JACKSON        CLOUDY    64  30  27 S25G37    29.61F
TRACY          CLOUDY    61  35  38 S12G20    29.58S
SLAYTON        LGT RAIN  55  39  55 W16       29.59R
$$
MNZ065>067-074>077-082>085-091>093-242000-
   South Central Minnesota

CITY           SKY/WX    TMP DP  RH WIND       PRES   REMARKS
MANKATO        CLOUDY    69  27  20 S24G35    29.62F
NEW ULM        CLOUDY    66  28  24 S24       29.59F
ST JAMES       CLOUDY    64  30  27 S23G31    29.61F
FAIRMONT       CLOUDY    66  33  29 S26G35    29.61F
GLENCOE        PTSUNNY   72  34  24 S16G33    29.61F
FARIBAULT      CLOUDY    70  30  23 SE17G33   29.67F
OWATONNA       PTSUNNY   70  25  18 S24G37    29.67F
WASECA         CLOUDY    70  30  23 S30G38    29.67F
ALBERT LEA     CLOUDY    66  19  16 S22G31    29.67F
$$
MNZ078>079-086>088-094>096-242000-
   Southeast Minnesota

CITY           SKY/WX    TMP DP  RH WIND       PRES   REMARKS
ROCHESTER      PTSUNNY   68  29  23 S28G36    29.72F
RED WING       CLOUDY    70  23  17 S16G29    29.70F
STANTON        CLOUDY    70  29  21 S16G30    29.66F
DODGE CENTER   CLOUDY    68  30  24 S31G38    29.70F
WINONA         CLOUDY    70  32  24 S10G22    29.75F
AUSTIN         CLOUDY    70  27  19 S22G30    29.70F
PRESTON        PTSUNNY   68  29  22 S26G37    29.75F
$$
ABBREVIATIONS USED IN REMARKS
   TC - TEMPERATURES IN CELSIUS
  WCI - WIND CHILL INDEX
   HX - HEAT INDEX
  VSB - VISIBILITY
$$



USA.gov is the U.S. government's official web portal to all federal, state and local government web resources and services.